This demonstration page uses our WeatherBlox Daily Observations layout. Learn more.

Hourly Observations for October 21, 2019

Temp ( °F °C ) Dew Point ( °F °C ) Humidity (%) Winds ( mph kmh ) Pressure ( in mb ) Visibility ( mi km ) Precip ( " mm )
12:53 am 00:53 Clear 52 11.1 46 7.8 80 80 ESE 3 6 29.88 1012 10 16.09344 0 0
1:53 am 01:53 Clear 58 14.4 48 8.9 70 70 SSE 6 9 29.85 1011 10 16.09344 0 0
2:53 am 02:53 Clear 57 13.9 48 8.9 72 72 SSE 6 9 29.83 1010 10 16.09344 0 0
3:53 am 03:53 Clear 57 13.9 51 10.6 81 81 SSE 5 7 29.83 1010 10 16.09344 0 0
4:53 am 04:53 Clear 57 13.9 52 11.1 83 83 SSE 6 9 29.83 1010 10 16.09344 0 0
5:53 am 05:53 Clear 57 13.9 53 11.7 87 87 SE 6 9 29.83 1010 7 11.265408 0 0
6:53 am 06:53 Clear with Mist and Fog 57 13.9 53 11.7 87 87 SE 8 13 29.8 1009 6 9.656064 0 0
7:53 am 07:53 Mostly Clear 58 14.4 54 12.2 87 87 SE 8 13 29.77 1008 8 12.874752 0 0
8:06 am 08:06 Mostly Cloudy 59 15 54 12.2 83 83 SSE 10 17 29.77 1008 8 12.874752 0 0
8:53 am 08:53 Cloudy 60 15.6 55 12.8 84 84 ESE 12 19 29.77 1008 10 16.09344 0 0
9:53 am 09:53 Cloudy 61 16.1 56 13.3 84 84 SSE 14 22 29.74 1007 10 16.09344 0 0
10:19 am 10:19 Cloudy with Light Rain 61 16.1 56 13.3 84 84 SSE 10 17 29.74 1007 7 11.265408 0.001 0.001
10:47 am 10:47 Cloudy with Nearby Thunderstorms 63 17 57 14 83 83 S 9 15 29.77 1008 2.5 4.02336 0.07 1.778
10:53 am 10:53 Cloudy with Nearby Thunderstorms 61 16.1 57 13.9 87 87 S 10 17 29.77 1008 0.75 1.207008 0.18 4.572
11:00 am 11:00 Cloudy with Nearby Thunderstorms 61 16.1 57 13.9 87 87 SE 13 20 29.74 1007 1 1.609344 0.04 1.016
11:13 am 11:13 Cloudy with Nearby Thunderstorms 61 16.1 57 13.9 87 87 SE 14 22 29.74 1007 2 3.218688 0.08 2.032
11:21 am 11:21 Cloudy with Heavy Rain 61 16.1 57 13.9 87 87 SE 15 24 29.71 1006 2 3.218688 0.11 2.794
11:41 am 11:41 Cloudy with Rain 61 16.1 57 13.9 87 87 SE 18 30 29.71 1006 2.5 4.02336 0.18 4.572
11:51 am 11:51 Cloudy with Light Rain 61 16 57 14 88 88 SSE 16 26 29.71 1006 4 6.437376 0.2 5.08
11:53 am 11:53 Cloudy with Light Rain 61 16.1 57 13.9 87 87 SSE 15 24 29.71 1006 4 6.437376 0.2 5.08
12:24 pm 12:24 Cloudy with Rain 61 16.1 57 13.9 87 87 SSE 12 19 29.71 1006 2.5 4.02336 0.04 1.016
12:27 pm 12:27 Cloudy with Heavy Rain 61 16.1 57 13.9 87 87 SSE 12 19 29.71 1006 1.75 2.816352 0.05 1.27
12:36 pm 12:36 Cloudy with Light Rain 62 16.7 57 13.9 84 84 SSE 14 22 29.68 1005 2 3.218688 0.06 1.524
12:42 pm 12:42 Cloudy with Light Rain 62 16.7 57 13.9 84 84 SSE 16 26 29.68 1005 4 6.437376 0.06 1.524
12:53 pm 12:53 Cloudy with Light Rain 62 16.7 57 13.9 84 84 SSE 10 17 29.68 1005 7 11.265408 0.06 1.524
1:14 pm 13:14 Cloudy with Light Rain 62 16.7 58 14.4 86 86 SE 17 28 29.65 1004 9 14.484096 0.01 0.254
1:53 pm 13:53 Cloudy 63 17.2 58 14.4 84 84 SE 17 28 29.62 1003 10 16.09344 0.01 0.254
2:16 pm 14:16 Cloudy with Light Rain 64 17.8 58 14.4 81 81 SSE 12 19 29.65 1004 10 16.09344 0.001 0.001
2:53 pm 14:53 Cloudy 65 18.3 59 15 81 81 S 14 22 29.62 1003 10 16.09344 0.001 0.001
3:29 pm 15:29 Cloudy with Light Rain 66 18.9 60 15.6 81 81 S 17 28 29.59 1002 10 16.09344 0.001 0.001
3:53 pm 15:53 Mostly Cloudy with Light Rain 68 20 60 15.6 76 76 S 17 28 29.59 1002 10 16.09344 0.001 0.001
4:53 pm 16:53 Cloudy with Light Rain 69 20.6 61 16.1 76 76 undefined N/A 29.59 1002 10 16.09344 0.001 0.001
5:53 pm 17:53 Cloudy with Light Rain 70 21.1 57 13.9 64 64 S 20 31 29.56 1001 10 16.09344 0.001 0.001
6:53 pm 18:53 Mostly Cloudy 69 20.6 57 13.9 66 66 SSW 14 22 29.59 1002 10 16.09344 0.001 0.001
7:53 pm 19:53 Mostly Clear 67 19.4 57 13.9 71 71 SSW 12 19 29.62 1003 10 16.09344 0 0
8:53 pm 20:53 Mostly Clear 66 18.9 58 14.4 75 75 SSW 15 24 29.62 1003 10 16.09344 0 0
9:53 pm 21:53 Clear 66 18.9 57 13.9 73 73 SSW 15 24 29.65 1004 10 16.09344 0 0
10:53 pm 22:53 Mostly Cloudy 65 18.3 56 13.3 73 73 SW 10 17 29.65 1004 10 16.09344 0 0
11:39 pm 23:39 Partly Cloudy 63 17.2 55 12.8 76 76 SW 12 19 29.68 1005 10 16.09344 0 0
11:53 pm 23:53 Mostly Clear 63 17.2 55 12.8 76 76 SW 9 15 29.68 1005 10 16.09344 0 0

Powered by AerisWeather